Theta_e
334 329 331 335 333 331 334 338 354 363 360 360 359 357 359 356 357 359 355 356 351 351
332 337 335 341 343 334 341 339 343 357 364 361 360 362 362 358 359 357 356 352 354 352
329 331 334 341 342 343 343 344 345 349 356 360 361 363 363 358 359 354 352 351 354 355
326 328 331 335 338 342 347 347 345 345 352 355 360 363 361 358 352 350 354 355 355 353
325 325 330 331 334 339 342 345 346 345 344 350 353 358 355 353 348 351 352 353 350 351
325 325 329 332 333 334 339 343 343 343 344 348 351 354 355 352 350 354 353 351 351 350
321 324 326 329 331 334 335 342 341 344 343 347 351 352 352 351 353 355 353 354 351 347
319 320 323 327 330 332 335 344 340 341 345 348 350 348 351 353 354 355 353 353 348 350
314 316 321 326 330 330 333 344 341 341 343 347 347 322 323 343 354 354 351 349 347 346
313 313 318 323 326 329 334 343 343 345 347 350 353 312 314 321 355 352 350 347 347 342
309 312 317 321 325 331 334 341 343 347 352 353 350 310 312 318 354 351 348 348 346 344
307 308 316 321 326 330 336 340 344 348 350 350 341 307 311 328 349 346 345 344 343 342
309 312 317 321 323 329 334 340 346 348 349 337 342 304 310 329 343 342 340 342 337 310
311 314 320 322 320 328 331 341 344 345 347 349 339 326 310 307 342 338 336 334 335 334
Wind_Speed
10 10 10 11 11 11 11 13 13 14 18 17 16 14 13 11 11 11 11 12 10 9
10 11 11 12 10 11 12 12 15 13 13 15 16 16 15 12 11 10 11 9 10 11
11 11 12 11 13 13 13 14 15 15 14 14 15 17 14 12 11 11 10 9 12 11
10 13 13 12 12 14 13 14 16 17 14 15 16 14 13 12 13 14 13 12 12 13
11 13 13 12 15 14 16 14 16 16 16 16 15 14 15 16 15 15 15 13 11 14
15 13 14 13 15 16 17 16 17 17 17 18 18 18 18 17 16 15 14 13 13 13
16 16 16 15 16 16 18 18 17 17 18 18 18 18 19 18 16 14 13 13 13 13
17 17 19 18 17 17 19 18 18 18 18 18 17 15 18 17 15 13 13 13 13 12
20 20 20 19 18 17 20 20 18 18 19 19 14 17 17 15 13 14 14 12 13 9
20 22 21 20 19 19 19 18 18 19 19 19 19 20 18 14 13 14 13 12 11 11
21 21 20 18 19 19 18 18 17 19 20 18 13 18 19 17 15 12 12 12 13 11
20 21 22 17 19 16 17 17 18 18 19 19 14 16 20 18 15 11 13 13 13 11
17 19 17 19 19 18 15 18 15 17 18 17 16 14 21 16 12 13 12 11 9 11
19 20 18 19 15 16 15 17 18 19 17 16 17 17 20 13 13 12 11 10 9 7
Wind_Direction
260 260 256 246 253 257 252 256 259 203 211 219 218 219 223 216 204 199 206 209 211 245
267 263 263 269 275 272 266 261 273 249 209 214 215 220 211 214 200 193 208 194 215 227
278 277 276 271 250 252 264 275 276 270 226 212 218 222 203 206 199 191 200 201 201 213
272 273 275 270 267 277 251 245 248 250 246 227 219 208 199 205 197 196 203 199 194 204
281 275 269 268 271 269 270 255 248 236 236 230 220 207 200 203 199 198 199 195 202 202
286 278 272 268 271 272 269 259 251 241 227 215 219 203 202 201 210 192 197 184 205 204
284 284 277 268 270 271 270 260 247 237 232 222 211 206 199 200 205 186 190 192 197 203
280 276 275 269 263 267 269 263 244 239 224 224 212 202 196 198 192 178 189 184 194 203
277 272 266 262 263 264 264 258 240 235 223 219 212 186 176 191 173 183 181 180 192 170
275 272 261 259 262 261 261 253 233 232 227 210 204 160 164 153 170 177 176 176 185 178
280 273 265 257 252 254 262 244 230 224 218 201 176 161 146 156 167 172 171 177 182 193
264 267 264 256 252 254 257 233 223 218 202 191 155 156 148 165 163 164 172 177 187 195
271 266 265 262 264 258 267 232 212 205 195 171 159 169 156 175 161 159 172 175 143 69
263 265 257 257 262 258 268 221 202 194 178 157 158 174 164 194 155 168 167 177 156 151